DELTA 1 DEB

Satellite information

Favourite Embed

Satellite Type and Status

DEBRISIN ORBIT

Key statistics

Satellite DELTA 1 DEB at a glance.

Uptime

17232

Days in orbit

Revolutions

≈ 13.9

Per day

Orbit

SSO

Sun Synchronous Orbit

Inclination

98.8

Latest

Satellite identification and parameters

Extended collection of information and parameters for DELTA 1 DEB.

Object identification

Identified? True

Debris? True

Object name: DELTA 1 DEB

International designator: 1978-026CD

Object number (NORAD): 12236

Object ID (CCSDS): 12236

Country: UNITED STATES OF AMERICA (US)

Current information (Y/N): Y

RCS size: SMALL

Orbital parameters

Period: 103.785 minutes

Inclination: 98.8066 deg

SMA: 7315.588 km

Apoapsis: 1094.526 km

Periapsis: 780.38 km

RAAN: 352.8026 deg

Eccentricy: 0.021471

Argument of periapsis: 356.8327 deg

Mean anomaly: 56.7451 deg

Mean motion: 13.87486896 rev/day

Mean motion (dot): 0.00001032 rev/day2

B* drag term: 0.00075771 1/REarth

Two-line elements (TLE)

Creation date: May 9, 2025, 2:46 a.m.

Reference frame: TEME

Reference center: EARTH

Epoch: May 8, 2025, 2:13 p.m. UTC

TLE line 0: 0 DELTA 1 DEB

TLE line 1: 1 12236U 78026CD 25128.59261728 .00001032 00000-0 75771-3 0 9991

TLE line 2: 2 12236 98.8066 352.8026 0214710 356.8327 56.7451 13.87486896223508

Live tracking on map

Real-time ground track for satellite DELTA 1 DEB.

In-orbit conjunctions

A list of the most updated potential collisions computed for object DELTA 1 DEB.

Target Orbit TCA Probability of collision Miss distance Type
COSMOS 1275 DEB LEO 2024-07-02 02:18:56 0.0001882089 104.0 (m) DEBRIS

Associated space launch

Earth observation satellite

DELTA 1 DEB was lifted into orbit during the mission ‘Delta 2910 | Landsat 3’, on board a Delta 2910 space rocket.

The launch took place on March 5, 1978, 5:54 p.m. from Space Launch Complex 2W.

For more information about the launch, click the button.

Launch to space Delta 2910 | Landsat 3
Delta 2910 | Landsat 3

Agency: N/A

Status: Launch Successful

Launch date: March 5, 1978, 5:54 p.m. UTC

Rocket: Delta 2910

Launch pad: Space Launch Complex 2W

Location: Vandenberg SFB, CA, USA

...

Latest news about this satellite

There are no fresh news available about this satellite. Check back as we update our databases every day.


Newsletter sign-up

Weekly statistics, charts and insights to help you stay on top of the space industry.